Regional Weather Roundup
Issued by NWS Upton, NY

Current Version | Previous Version | Text Only | Print | Product List | Glossary On
Versions: 1 2 3 4 5 6 7 8 9 10 11 12 13 14 15 16 17 18 19 20 21 22 23 24 25 26 27
000
ASUS41 KOKX 202209
RWROKX

REGIONAL WEATHER ROUNDUP
NATIONAL WEATHER SERVICE NEW YORK NY
600 PM EDT WED SEP 20 2017

NOTE: "FAIR" INDICATES FEW OR NO CLOUDS BELOW 12,000 FEET WITH NO
SIGNIFICANT WEATHER AND/OR OBSTRUCTIONS TO VISIBILITY.

NYZ071-072-176-178-NJZ106-104-202300-
NEW YORK CITY METRO AREA

CITY           SKY/WX    TMP DP  RH WIND       PRES   REMARKS
Central Park   CLOUDY    78  64  61 VRB6      29.93R
Bronx Bot Gard   N/A     77  63  61 NW7       29.92R
LaGuardia APRT CLOUDY    78  65  63 N14G25    29.89R
Kennedy INTL   MOCLDY    78  65  63 N16G23    29.89R
Breezy Point     N/A     77 N/A N/A N14G20      N/A
Newark/Liberty MOCLDY    79  63  57 N18G25    29.90R
Teterboro      PTCLDY    80  64  58 N10       29.89R
$$

NYZ177-179-078>081-202300-
LONG ISLAND NEW YORK

CITY           SKY/WX    TMP DP  RH WIND       PRES   REMARKS
Jones Beach      N/A     75 N/A N/A N16         N/A
Matinecock PT    N/A     75 N/A N/A N16         N/A
Farmingdale    CLOUDY    77  64  64 N14G22    29.87R
MacArthur/ISP  CLOUDY    76  66  71 N14       29.86R
Shirley        CLOUDY    76  67  73 N16G23    29.86R
Mt Sinai Harb    N/A    N/A N/A N/A N14         N/A
Westhampton    CLOUDY    74  65  73 N12G21    29.85R
East Hampton   CLOUDY    71  66  84 N15G25    29.82R
Montauk          N/A     72  67  84 N13G25    29.82R
$$

NYZ052-065-067-202300-
HUDSON VALLEY

CITY           SKY/WX    TMP DP  RH WIND       PRES   REMARKS
White Plains   MOCLDY    76  65  68 NW13      29.91R
Larchmont Harb   N/A     77 N/A N/A N14         N/A
Croton On Huds   N/A     77 N/A N/A N3G9        N/A
Newburgh       MOCLDY    77  66  69 E9        29.94R
Montgomery     PTCLDY    77  66  68 N3        29.93R
Poughkeepsie   CLOUDY    76  64  66 N5        29.91R
Albany         CLOUDY    76  64  66 N6        29.95S
$$

NJZ001-105-106-008-010-013-015-019>022-104-202300-
NEW JERSEY

CITY           SKY/WX    TMP DP  RH WIND       PRES   REMARKS
Newark/Liberty MOCLDY    79  63  57 N18G25    29.90R
Teterboro      PTCLDY    80  64  58 N10       29.89R
Caldwell       CLOUDY    78  66  66 N7        29.91S
Somerville     NOT AVBL
Linden         CLOUDY    79  62  54 N12G17    29.91R
Perth Amboy      N/A     79 N/A N/A N10         N/A
Sussex         MOSUNNY   78  67  68 E7        29.93R
Andover          N/A     77  67  71 NE3       29.94R
Trenton        CLOUDY    82  66  58 NE8       29.90R
Millville      MOSUNNY   86  69  56 NW7       29.89R HX  90
Atlantic City  CLOUDY    81  68  64 NW12      29.89R
Wrightstown    SUNNY     80  66  63 N13       29.87R
Toms River     CLOUDY    78  67  68 N8        29.90R
Belmar         MOCLDY    77  66  68 N10       29.91R
$$

PAZ047>061-062-071-202300-
EASTERN PENNSYLVANIA

CITY           SKY/WX    TMP DP  RH WIND       PRES   REMARKS
Philadelphia   MOSUNNY   85  61  44 N10G23    29.90R
Allentown      SUNNY     81  62  52 NE9       29.91S
Scranton       SUNNY     82  60  47 N8        29.97R
$$

CTZ002-004>006-009-010-012-RIZ004-006-007-MAZ004-011-015-202300-
SOUTHERN NEW ENGLAND
 IN CT

CITY           SKY/WX    TMP DP  RH WIND       PRES   REMARKS
Bradley INTL   CLOUDY    75  64  68 N12       29.89R
Hartford       CLOUDY    76  65  68 N13       29.88R
Danbury        CLOUDY    76  64  66 NW8       29.93R
Wtrbury/Oxford CLOUDY    73  64  73 N16G22    29.91R
Norwalk Harbor   N/A     77 N/A N/A N16         N/A
Bridgeport     CLOUDY    78  64  61 N9G22     29.87R
Meriden        CLOUDY    75  63  66 N14G20    29.87R
New Haven      CLOUDY    76  64  66 N16G23    29.86R
Chester        CLOUDY    72  66  83 N10G17    29.86S
Groton         CLOUDY    73  66  78 N16G29    29.81R
Wilimantic     CLOUDY    72  68  87 N10       29.87R

 IN RI

CITY           SKY/WX    TMP DP  RH WIND       PRES   REMARKS
Providence     CLOUDY    69  68  96 N23G33    29.84R
Block Island   CLOUDY    69  66  90 N22G31    29.80R
Westerly       CLOUDY    73  66  78 N16G28    29.82R
 IN MA

CITY           SKY/WX    TMP DP  RH WIND       PRES   REMARKS
Boston         LGT RAIN  69  66  90 NE22G30   29.87R
Worcester      LGT RAIN  66  64  93 N15G25    29.92R FOG
Westfield      CLOUDY    75  65  70 N9        29.91R
Provincetown   LGT RAIN  63  63 100 NE23G32   29.80S FOG
Nantucket      LGT RAIN  65  65 100 N35G45    29.66R FOG
$$

ANZ330-335-338-340-345-350-353-355-202300-
COASTAL MARINE OBSERVATIONS


STATION/POSITION TIME  SKY/WX   TEMP    WIND        PRES    VSBY  WAVE
                                AIR SEA DIR/SP/G                  HT/PER
                 (UTC)          (F)     (DEG/KT/KT) (MB)    (MI)  (FT/S)
NY HARB ENTRANCE 2150            75 71  340/ 16/ 17 1010.6          6/ 9
20 S FIRE ISLAND 2150            72 68  350/ 16/ 17 1010.5          7/11
GREAT SOUTH BAY  2130            75 71  360/ 17/ 25   N/A
23 SSW MONTAUK P 2150            69 66              1008.7          9/11
15 E BARNEGAT LI 2130               69                N/A           8/11
HUDSON CANYON    2050            71 69  340/ 23/ 29 1007.2         11/10
KINGS POINT      2148            76 71   30/ 14/ 16 1012.9
EXECUTION ROCKS  2145            77      20/ 12/ 16   N/A
WESTERN LI SOUND NOT AVBL
CENTRAL LI SOUND NOT AVBL
EASTERN LI SOUND NOT AVBL
ROBBINS REEF     2148            78     360/ 18/ 21 1012.8
$$


>>>>>>>>>>>>>>>>>>>>>>>>>>>> KEY <<<<<<<<<<<<<<<<<<<<<<<<<<<
>                                                          <
>     SKY/WX - Sky Condition/Present Weather               <
>     TMP    - Temperature in Fahrenheit                   <
>     DP     - Dew Point in Fahrenheit                     <
>     RH     - Relative Humidity in Percent                <
>     WIND   - Direction (from) and Speed in MPH           <
>     PRES   - Mean Sea Level Pressure (inches of Hg)      <
>     WCI    - Wind Chill Index                            <
>     VSB    - VISIBILITY IN MILES                         <
>     HX     - HEAT INDEX                                  <
>     TC     - TEMPERATURE IN CELSIUS                      <
>     VRB    - VARIABLE WIND DIRECTION                     <
>                                                          <
>>>>>>>>>>>>>>>>>>>>>>>>>>>> KEY <<<<<<<<<<<<<<<<<<<<<<<<<<<




USA.gov is the U.S. government's official web portal to all federal, state and local government web resources and services.